Stations météo

réclame
Mon MeteoGroup
Odiham, Grande-Bretagne (3761): Température de l'air & dewpoint: 21.02.2020 01:00:00 - 27.02.2020 01:00:00 (GMT)Odiham, Grande-Bretagne (3761): Température de l'air -20cm & Température de l'air -100cm: 21.02.2020 01:00:00 - 27.02.2020 01:00:00 (GMT)Odiham, Grande-Bretagne (3761): Vitesse du vent & gusts: 21.02.2020 01:00:00 - 27.02.2020 01:00:00 (GMT)Odiham, Grande-Bretagne (3761): Direction du vent: 21.02.2020 01:00:00 - 27.02.2020 01:00:00 (GMT)Odiham, Grande-Bretagne (3761): reduced air pressure: 21.02.2020 01:00:00 - 27.02.2020 01:00:00 (GMT)Odiham, Grande-Bretagne (3761): visibility: 21.02.2020 01:00:00 - 27.02.2020 01:00:00 (GMT)Odiham, Grande-Bretagne (3761): Ensoleillement: 21.02.2020 01:00:00 - 27.02.2020 01:00:00 (GMT)Odiham, Grande-Bretagne (3761): Quantités de précipitations: 21.02.2020 01:00:00 - 27.02.2020 01:00:00 (GMT)
Date & Time tt [°C] td [°C] tt -20cm [°C] tt -100cm [°C] ff [km/h] ff [knt] fx [km/h] fx [knt] dd ppp [hPa] vv [km] sd [min] rr [mm]
27.02.2020 01:00:00 3,7 -0,2 - - 13 7 - - S 1003,8 10 0 0,0
27.02.2020 00:00:00 3,4 -0,3 - - 15 8 - - S 1005,1 10 - 0,0
26.02.2020 23:00:00 2,7 -0,5 - - 11 6 - - SSW 1006,6 10 0 0,0
26.02.2020 22:00:00 3,2 -0,3 - - 15 8 - - SSW 1007,8 10 0 0,0
26.02.2020 21:00:00 3,1 -0,3 - - 11 6 - - SSW 1008,4 25 0 0,0
26.02.2020 20:00:00 3,7 0,0 - - 13 7 - - SW 1008,9 10 0 0,0
26.02.2020 19:00:00 4,7 0,0 - - 16 9 - - WSW 1009,1 10 0 0,0
26.02.2020 18:00:00 5,5 -1,5 - - 16 9 - - W 1008,8 10 0 0,0
26.02.2020 17:00:00 6,6 -1,3 - - 22 12 - - W 1008,5 10 54 0,0
26.02.2020 16:00:00 6,6 -0,2 - - 28 15 - - W 1008,3 10 54 0,0
26.02.2020 15:00:00 6,2 1,5 - - 26 14 50 27 WNW 1007,6 20 12 0,0
26.02.2020 14:00:00 7,4 0,6 - - 26 14 46 25 W 1007,1 35 24 0,0
26.02.2020 13:00:00 6,8 0,6 - - 29 16 48 26 W 1006,7 35 18 0,0
26.02.2020 12:00:00 6,1 0,5 - - 29 16 46 25 W 1006,5 10 6 0,0
26.02.2020 11:00:00 5,7 0,1 - - 26 14 - - W 1006,0 10 24 0,0
26.02.2020 10:00:00 4,9 0,6 - - 28 15 - - W 1005,4 10 60 0,0
26.02.2020 09:00:00 3,7 0,4 7,2 7,7 31 17 - - W 1004,5 10 48 0,0
26.02.2020 08:00:00 2,6 -0,2 - - 22 12 - - WSW 1003,5 10 30 0,0
26.02.2020 07:00:00 1,8 -0,7 - - 24 13 - - WSW 1002,3 10 0 0,0
26.02.2020 06:00:00 1,4 -1,3 - - 24 13 - - WSW 1001,5 35 0 0,0
26.02.2020 05:00:00 1,1 -1,2 - - 28 15 - - W 1001,2 10 0 0,0
26.02.2020 04:00:00 1,4 -1,2 - - 26 14 - - WSW 1000,1 27 0 0,0
26.02.2020 03:00:00 1,6 -1,1 - - 24 13 - - W 999,7 28 0 0,0
26.02.2020 02:00:00 1,8 -1,2 - - 22 12 - - WSW 999,1 30 0 0,0
26.02.2020 01:00:00 2,2 -0,9 - - 29 16 - - WSW 998,7 10 0 0,0
26.02.2020 00:00:00 2,2 -0,5 - - 28 15 - - WSW 998,4 10 - 0,0
25.02.2020 23:00:00 2,3 0,0 - - 24 13 - - WSW 998,0 10 0 0,0
25.02.2020 22:00:00 2,5 -0,2 - - 28 15 - - WSW 997,6 10 0 0,0
25.02.2020 21:00:00 2,7 -0,2 - - 28 15 - - WSW 997,5 10 0 0,0
25.02.2020 20:00:00 3,4 0,1 - - 29 16 54 29 WSW 997,3 10 0 0,0
25.02.2020 19:00:00 3,8 0,9 - - 35 19 54 29 WSW 997,1 10 0 0,0
25.02.2020 18:00:00 3,9 1,2 - - 35 19 57 31 WSW 996,9 10 0 0,0
25.02.2020 17:00:00 3,8 1,9 - - 26 14 - - WSW 996,9 10 12 0,4
25.02.2020 16:00:00 4,2 1,9 - - 39 21 52 28 WSW 997,9 10 0 0,0
25.02.2020 15:00:00 6,3 1,4 - - 24 13 - - WSW 998,2 10 0 0,2
25.02.2020 14:00:00 5,7 3,5 - - 22 12 57 31 W 999,4 30 6 0,2
25.02.2020 13:00:00 7,0 1,9 - - 29 16 - - WSW 1000,2 10 12 0,0
25.02.2020 12:00:00 7,2 1,9 - - 31 17 - - W 1000,8 10 18 0,0
25.02.2020 11:00:00 6,7 3,0 - - 34 18 - - WSW 1001,5 10 0 0,0
25.02.2020 10:00:00 6,6 3,7 - - 28 15 - - WSW 1002,0 10 0 0,0
25.02.2020 09:00:00 5,5 3,0 7,7 7,7 29 16 - - WSW 1002,8 10 48 0,0
25.02.2020 08:00:00 4,7 2,7 - - 24 13 - - SW 1003,2 10 0 0,0
25.02.2020 07:00:00 4,4 2,8 - - 26 14 - - SW 1003,3 27 0 0,0
25.02.2020 06:00:00 4,5 2,8 - - 24 13 - - SW 1004,1 10 0 0,0
25.02.2020 05:00:00 4,7 3,0 - - 22 12 - - SW 1004,6 10 0 0,0
25.02.2020 04:00:00 5,4 3,0 - - 22 12 46 25 WSW 1004,9 10 0 0,0
25.02.2020 03:00:00 5,7 3,2 - - 26 14 - - WSW 1005,4 30 0 0,0
25.02.2020 02:00:00 5,8 3,7 - - 22 12 55 30 WSW 1005,7 30 0 0,0
25.02.2020 01:00:00 6,4 4,1 - - 29 16 48 26 WSW 1005,8 29 0 0,0
25.02.2020 00:00:00 6,5 4,3 - - 24 13 - - WSW 1006,0 10 - 0,0
24.02.2020 23:00:00 7,0 4,4 - - 22 12 - - WSW 1006,5 10 0 0,0
24.02.2020 22:00:00 7,3 4,6 - - 26 14 - - WSW 1006,6 10 0 0,0
24.02.2020 21:00:00 8,2 5,2 - - 26 14 46 25 WSW 1006,9 10 0 0,0
24.02.2020 20:00:00 8,6 5,5 - - 26 14 59 32 WSW 1006,6 25 0 0,0
24.02.2020 19:00:00 9,9 6,3 - - 41 22 59 32 W 1006,1 10 0 0,0
24.02.2020 18:00:00 10,8 8,5 - - 34 18 65 35 WSW 1005,1 10 0 0,0
24.02.2020 17:00:00 11,2 9,0 - - 42 23 59 32 SW 1004,4 10 0 0,0
24.02.2020 16:00:00 10,8 9,6 - - 41 22 61 33 SW 1005,0 10 0 0,0
24.02.2020 15:00:00 10,5 9,4 - - 39 21 61 33 SW 1005,6 10 0 0,2
24.02.2020 14:00:00 10,3 9,2 - - 44 24 67 36 SW 1006,4 10 0 1,0
24.02.2020 13:00:00 10,1 9,2 - - 42 23 59 32 SW 1007,5 8 0 2,6
24.02.2020 12:00:00 9,9 9,1 - - 39 21 67 36 SW 1008,2 4,0 0 1,8
24.02.2020 11:00:00 10,3 9,0 - - 41 22 68 37 SW 1008,8 8 0 0,0
24.02.2020 10:00:00 10,3 9,1 - - 48 26 70 38 SW 1009,7 6 0 0,0
24.02.2020 09:00:00 10,4 8,5 7,7 7,5 37 20 70 38 SW 1010,4 10 0 0,0
24.02.2020 08:00:00 10,4 8,3 - - 41 22 63 34 SW 1011,0 10 0 0,0
24.02.2020 07:00:00 10,4 8,3 - - 41 22 65 35 SW 1011,8 10 0 0,2
24.02.2020 06:00:00 10,1 9,9 - - 29 16 46 25 SSW 1013,9 5 0 0,0
24.02.2020 05:00:00 7,1 6,9 - - 21 11 - - SSE 1015,6 7 0 0,4
24.02.2020 04:00:00 6,4 6,2 - - 22 12 - - SSE 1017,8 4,9 0 1,2
24.02.2020 03:00:00 5,6 5,3 - - 16 9 - - ESE 1019,6 2,4 0 0,6
24.02.2020 02:00:00 5,8 4,8 - - 13 7 - - SE 1021,6 10 0 0,2
24.02.2020 01:00:00 5,6 4,6 - - 5 3 - - SE 1023,0 10 0 0,2
24.02.2020 00:00:00 6,3 4,0 - - 9 5 - - S 1023,5 45 - 0,0
23.02.2020 23:00:00 6,6 2,7 - - 5 3 - - S 1024,1 10 0 0,0
23.02.2020 22:00:00 7,3 1,1 - - 5 3 - - SW 1024,1 10 0 0,0
23.02.2020 21:00:00 7,7 1,0 - - 8 4 - - W 1024,3 10 0 0,0
23.02.2020 20:00:00 8,0 1,0 - - 9 5 - - W 1024,3 50 0 0,0
23.02.2020 19:00:00 8,3 2,2 - - 8 4 - - WNW 1023,6 10 0 0,0
23.02.2020 18:00:00 8,9 2,8 - - 15 8 - - WNW 1022,6 45 0 0,0
23.02.2020 17:00:00 9,7 2,9 - - 22 12 - - WNW 1021,3 10 0 0,0
23.02.2020 16:00:00 10,3 4,0 - - 26 14 46 25 WNW 1019,8 50 6 0,0
23.02.2020 15:00:00 11,8 4,9 - - 29 16 55 30 WNW 1018,1 45 18 0,0
23.02.2020 14:00:00 12,4 7,2 - - 39 21 63 34 W 1016,8 29 18 0,0
23.02.2020 13:00:00 13,2 8,5 - - 44 24 76 41 WSW 1015,4 29 30 0,0
23.02.2020 12:00:00 13,2 9,7 - - 42 23 63 34 W 1014,7 40 0 0,2
23.02.2020 11:00:00 13,3 11,3 - - 44 24 72 39 WSW 1013,7 10 0 0,0
23.02.2020 10:00:00 11,9 11,1 - - 39 21 57 31 SW 1013,2 4,4 0 0,0
23.02.2020 09:00:00 11,6 10,5 7,2 7,4 41 22 65 35 SW 1012,3 10 0 0,0
23.02.2020 08:00:00 11,3 10,2 - - 50 27 74 40 SW 1012,0 10 0 0,2
23.02.2020 07:00:00 11,1 10,3 - - 48 26 76 41 SW 1011,9 2,8 0 0,0
23.02.2020 06:00:00 11,2 10,3 - - 55 30 80 43 SW 1011,6 4,6 0 0,0
23.02.2020 05:00:00 11,4 10,5 - - 50 27 74 40 SW 1012,6 9 0 0,0
23.02.2020 04:00:00 11,0 10,3 - - 46 25 70 38 SSW 1013,2 10 0 0,2
23.02.2020 03:00:00 10,1 9,5 - - 41 22 63 34 SSW 1014,7 6 0 0,4
23.02.2020 02:00:00 8,8 7,8 - - 26 14 - - SSW 1017,9 4,4 0 0,2
23.02.2020 01:00:00 8,5 6,7 - - 22 12 - - SSW 1019,7 10 0 0,0
23.02.2020 00:00:00 9,3 6,3 - - 29 16 50 27 SW 1020,7 13 - 0,0
22.02.2020 23:00:00 9,2 6,6 - - 24 13 - - SW 1021,4 11 0 0,0
22.02.2020 22:00:00 9,0 5,5 - - 26 14 - - SW 1022,2 17 0 0,0
22.02.2020 21:00:00 9,0 5,4 - - 28 15 46 25 WSW 1022,3 10 0 0,0
22.02.2020 20:00:00 9,0 5,4 - - 28 15 50 27 WSW 1022,2 10 0 0,0
22.02.2020 19:00:00 9,3 5,5 - - 31 17 48 26 WSW 1021,8 18 0 0,0
22.02.2020 18:00:00 10,1 4,6 - - 37 20 65 35 WSW 1021,7 10 0 0,0
22.02.2020 17:00:00 11,1 4,5 - - 37 20 68 37 WSW 1020,8 10 0 0,0
22.02.2020 16:00:00 11,2 6,0 - - 22 12 - - WSW 1020,6 10 0 0,0
22.02.2020 15:00:00 11,6 5,3 - - 28 15 55 30 W 1019,8 19 0 0,0
22.02.2020 14:00:00 12,7 5,1 - - 39 21 65 35 WSW 1019,3 10 24 0,0
22.02.2020 13:00:00 12,5 5,9 - - 44 24 65 35 WSW 1019,2 19 36 0,0
22.02.2020 12:00:00 12,2 6,3 - - 39 21 59 32 WSW 1019,2 23 6 0,0
22.02.2020 11:00:00 11,4 8,0 - - 35 19 61 33 WSW 1018,6 28 0 0,2
22.02.2020 10:00:00 10,6 9,4 - - 37 20 65 35 SW 1017,5 5 0 0,0
22.02.2020 09:00:00 10,3 8,8 6,7 7,4 42 23 70 38 SW 1016,8 18 0 0,0
22.02.2020 08:00:00 10,0 8,3 - - 44 24 70 38 SW 1015,9 12 0 0,0
22.02.2020 07:00:00 9,9 7,7 - - 46 25 70 38 SW 1016,1 15 0 0,0
22.02.2020 06:00:00 9,5 7,4 - - 48 26 65 35 SW 1016,1 10 0 0,0
22.02.2020 05:00:00 9,4 6,6 - - 50 27 72 39 SW 1016,6 13 0 0,0
22.02.2020 04:00:00 9,1 5,7 - - 41 22 59 32 SSW 1016,2 14 0 0,0
22.02.2020 03:00:00 8,9 5,5 - - 41 22 67 36 SW 1016,8 14 0 0,0
22.02.2020 02:00:00 8,7 5,4 - - 42 23 67 36 SSW 1017,2 10 0 0,0
22.02.2020 01:00:00 8,6 5,3 - - 37 20 61 33 SSW 1018,2 15 0 0,0
22.02.2020 00:00:00 9,0 5,1 - - 37 20 61 33 SSW 1019,0 10 - 0,0
21.02.2020 23:00:00 9,1 5,4 - - 34 18 70 38 SW 1020,3 16 0 0,0
21.02.2020 22:00:00 9,1 5,2 - - 54 29 78 42 SW 1019,8 18 0 0,0
21.02.2020 21:00:00 9,1 5,2 - - 41 22 63 34 SW 1020,5 10 0 0,0
21.02.2020 20:00:00 9,2 5,2 - - 39 21 61 33 SW 1021,2 10 0 0,0
21.02.2020 19:00:00 9,3 5,4 - - 31 17 57 31 SW 1022,0 16 0 0,0
21.02.2020 18:00:00 9,2 5,3 - - 31 17 55 30 SW 1021,5 16 0 0,0
21.02.2020 17:00:00 9,5 5,4 - - 35 19 57 31 SW 1022,2 15 0 0,0
21.02.2020 16:00:00 9,6 5,2 - - 37 20 65 35 SW 1022,1 10 0 0,0
21.02.2020 15:00:00 9,6 5,0 - - 35 19 61 33 SW 1022,3 17 0 0,0
21.02.2020 14:00:00 9,9 4,4 - - 41 22 57 31 SW 1022,6 10 6 0,0
21.02.2020 13:00:00 9,3 4,1 - - 37 20 54 29 SW 1022,9 10 0 0,0
21.02.2020 12:00:00 8,9 3,9 - - 34 18 54 29 SW 1023,8 25 0 0,0
21.02.2020 11:00:00 8,1 3,6 - - 28 15 48 26 SW 1024,5 10 6 0,0
21.02.2020 10:00:00 7,6 3,4 - - 31 17 48 26 SW 1024,5 10 0 0,0
21.02.2020 09:00:00 6,4 3,3 6,7 7,5 24 13 - - SW 1024,5 10 0 0,0
21.02.2020 08:00:00 5,5 3,1 - - 24 13 - - SSW 1024,4 10 0 0,0
21.02.2020 07:00:00 4,3 2,7 - - 24 13 - - SSW 1024,3 10 0 0,0
21.02.2020 06:00:00 3,9 2,1 - - 22 12 - - SSW 1024,3 10 0 0,0
21.02.2020 05:00:00 4,1 2,1 - - 24 13 - - SW 1024,5 10 0 0,0
21.02.2020 04:00:00 3,7 1,6 - - 22 12 - - SW 1024,4 10 0 0,0
21.02.2020 03:00:00 3,4 1,1 - - 24 13 - - SW 1024,5 19 0 0,0
21.02.2020 02:00:00 2,9 0,3 - - 22 12 - - SW 1024,1 10 0 0,0
21.02.2020 01:00:00 2,9 0,3 - - 22 12 - - SW 1024,1 25 0 0,0

tt = Température de l'air
td = dewpoint
tt -20cm = Température de l'air -20cm
tt -100cm = Température de l'air -100cm
ff = Vitesse du vent
fx = gusts
dd = Direction du vent
ppp = reduced air pressure
vv = visibility
sd = Ensoleillement
rr = Quantités de précipitations

stations d'obs. à proximité